This is the latest recevied weather packets stored in our database for station/object F5ZYU-10. If no packets are shown the sender has not sent any weather packets the latest 10 day(s).
| Time | Temp. | Humidity | Pressure | Rain* | Wind** | Luminosity | Snow |
|---|---|---|---|---|---|---|---|
| 1787739210 | 21.67° C | 61% | 1020.9 hPa | - | - | - | - |
| 1787738310 | 21.67° C | 60% | 1021.2 hPa | - | - | - | - |
| 1787737410 | 21.11° C | 60% | 1021.5 hPa | - | - | - | - |
| 1787736510 | 21.11° C | 58% | 1021.3 hPa | - | - | - | - |
| 1787735610 | 20.56° C | 60% | 1021.2 hPa | - | - | - | - |
| 1787734710 | 20° C | 59% | 1021.4 hPa | - | - | - | - |
| 1787733817 | 20° C | 65% | 1021.6 hPa | - | - | - | - |
| 1787729334 | 18.89° C | 67% | 1022.1 hPa | - | - | - | - |
| 1787727533 | 18.33° C | 68% | 1022.1 hPa | - | - | - | - |
| 1787722135 | 18.33° C | 70% | 1022.2 hPa | - | - | - | - |
| 1787720336 | 18.33° C | 70% | 1022.4 hPa | - | - | - | - |
| 1787718529 | 18.89° C | 70% | 1022.6 hPa | - | - | - | - |
| 1787716729 | 18.89° C | 70% | 1023.2 hPa | - | - | - | - |
| 1787715838 | 18.89° C | 70% | 1023.5 hPa | - | - | - | - |
| 1787714935 | 18.89° C | 70% | 1023.3 hPa | - | - | - | - |
| 1787713128 | 19.44° C | 70% | 1023.9 hPa | - | - | - | - |
| 1787711328 | 19.44° C | 70% | 1024.2 hPa | - | - | - | - |
| 1787709535 | 19.44° C | 69% | 1024.4 hPa | - | - | - | - |
| 1787708635 | 20° C | 69% | 1024.4 hPa | - | - | - | - |
| 1787707735 | 20° C | 69% | 1024.4 hPa | - | - | - | - |
| 1787704135 | 20° C | 68% | 1024.8 hPa | - | - | - | - |
| 1787703233 | 20° C | 68% | 1024.9 hPa | - | - | - | - |
| 1787701433 | 20.56° C | 67% | 1025 hPa | - | - | - | - |
| 1787700543 | 20.56° C | 67% | 1025 hPa | - | - | - | - |
| 1787699642 | 20.56° C | 66% | 1025.2 hPa | - | - | - | - |
* Rain since midnight (hover to see other rain measurements)
** Current wind speed in m/s (hover to see current wind gust speed)